Other Public Products
Issued by NWS Grand Forks, ND

Home | Current Version | Previous Version | Graphics & Text | Print | Product List | Glossary On
Versions: 1 2 3 4 5 6 7 8 9 10 11 12 13 14 15 16 17 18 19 20 21 22 23 24 25 26 27 28 29 30 31 32 33 34 35 36 37 38 39 40 41 42 43 44 45 46 47 48 49 50
555
FPUS83 KFGF 182010
OPUFGF
PRAIRIE TO PINES WEATHER ROUNDUP
NATIONAL WEATHER SERVICE EASTERN NORTH DAKOTA/GRAND FORKS ND
300 PM CDT MON JUN 18 2018

 **SATELLITE DATA USED TO AUGMENT SKY COVER AT AUTOMATED STATIONS**
 *****  WEATHER ACROSS EASTERN NORTH DAKOTA  *****

CITY           SKY/WX    TMP DP  RH WIND       PRES   REMARKS
GRAND FORKS    FAIR      79  50  36 NE14G23   30.07F
GRND FORKS AFB FAIR      78  49  36 NE10      30.09F
GRND FORKS NWS   N/A     79  51  37 NE10      30.05F
BUXTON           N/A     79  52  38 NE10        N/A
DEVILS LAKE    FAIR      74  48  39 NE12G22   30.14S
FARGO          FAIR      78  53  41 E9        30.04F
WAHPETON ARPT  FAIR      77  50  38 NE8       30.03F
$$

 *****  WEATHER ACROSS CENTRAL AND WESTERN NORTH DAKOTA  *****

CITY           SKY/WX    TMP DP  RH WIND       PRES   REMARKS
JAMESTOWN      FAIR      77  46  33 NE15      30.09S
BISMARCK       FAIR      76  46  34 NE13      30.11F
MINOT          FAIR      76  47  35 NE15      30.13F
MINOT AFB      FAIR      76  43  30 E14G21    30.13S
GARRISON         N/A     73  48  41 E13       30.13F
WILLISTON      FAIR      78  48  34 SE16G23   30.13F
DICKINSON      FAIR      68  51  54 SE12      30.13S
HETTINGER      LGT RAIN  61  54  77 SE9       30.15R
$$

 *****  OTHER OBSERVATIONS NORTHEAST NORTH DAKOTA  *****

CITY           SKY/WX    TMP DP  RH WIND       PRES   REMARKS
WALHALLA       FAIR      77  46  33 N10G21    30.12S
LANGDON        FAIR      77  48  36 NE9G16    30.15S
CAVALIER       FAIR      79  46  31 E9        30.11F
GRAFTON        FAIR      77  50  38 VRB7      30.12F
CANDO          FAIR      77  48  36 E9        30.16S
FORT TOTTEN      N/A     75  48  37 NE7       29.95S
ROLLA          FAIR      73  43  33 NE10G16   30.16F
RUGBY          FAIR      75  45  33 NE12G17   30.14S
 ***** THE ABOVE OBSERVATIONS ARE NON NWS ARE NOT QUALITY
        CONTROLLED AND MAY MIS-REPORT RAIN FOR SNOW...
$$

 *****  OTHER OBSERVATIONS SOUTHEAST NORTH DAKOTA *****

CITY           SKY/WX    TMP DP  RH WIND       PRES   REMARKS
COOPERSTOWN    FAIR      77  46  33 NE13G21   30.10F
VALLEY CITY    FAIR      75  48  38 N14G20    30.09S
OAKES          FAIR      75  52  43 NE15      30.06F
GWINNER          N/A     73  52  46 NE8       30.06S
SHEYENNE NWR     N/A     76  54  45 NE9       29.95S
BUFFALO          N/A     77  43  28 W13         N/A
WYNDMERE       NOT AVBL
 ***** THE ABOVE OBSERVATIONS ARE NON NWS ARE NOT QUALITY
       CONTROLLED AND MAY MIS-REPORT RAIN FOR SNOW...
$$

  *****  WEATHER ACROSS NORTHERN MINNESOTA  *****

CITY           SKY/WX    TMP DP  RH WIND       PRES   REMARKS
FLAG ISLAND    FAIR      75  41  29 SE3       30.09S
WARROAD        FAIR      73  52  46 E12       30.11F
ROSEAU         FAIR      77  48  36 E12       30.11S
HALLOCK        FAIR      79  45  29 CALM      30.10F
THF RVR FALLS  FAIR      77  49  37 NE14      30.10S
HALSTAD          N/A     76  50  40 NE12        N/A
FOSSTON        NOT AVBL
BAUDETTE       FAIR      77  50  38 NW10G16   30.09S
WASKISH        FAIR      79  52  38 CALM      30.09S
CROOKSTON      FAIR      79  52  38 E14       30.08F
$$
  *****  WEATHER ACROSS CENTRAL AND WEST MINNESOTA  *****

CITY           SKY/WX    TMP DP  RH WIND       PRES   REMARKS
BEMIDJI        FAIR      77  52  41 E7        30.08F
PARK RAPIDS    FAIR      78  48  34 E9        30.06F
WADENA         FAIR      77  54  44 NE9       30.04F
DETROIT LAKES  FAIR      77  48  36 E7        30.07S
MOORHEAD       FAIR      75  52  43 NE10      30.05F
FERGUS FALLS   FAIR      79  54  41 E5        29.98F
ELBOW LAKE     FAIR      77  55  47 NE9G18    30.04S
MORRIS MN      FAIR      77  61  57 E8        30.01F
STAPLES        FAIR      79  48  34 E9        30.04F
WHEATON        NOT AVBL
$$
  *****  WEATHER ELSEWHERE ACROSS MINNESOTA  *****

CITY           SKY/WX    TMP DP  RH WIND       PRES   REMARKS
DULUTH         FAIR      76  50  40 E13       30.05S
INTRNTL FALLS    N/A    N/A N/A N/A MISG      30.10
ELY            FAIR      75  46  35 NE5       30.07F
CLOQUET        FAIR      75  46  35 E9        30.04F
BRAINERD       FAIR      80  53  39 NE10      30.04S
HIBBING        FAIR      77  49  37 VRB6      30.06S
ALEXANDRIA     FAIR      79  54  41 E10       30.05S
SAINT CLOUD    FAIR      76  59  55 NE6       30.01F
MINNEAPOLIS    CLOUDY    74  65  73 E9        30.00S
$$

  *****  WEATHER ACROSS SOUTH DAKOTA  *****

CITY           SKY/WX    TMP DP  RH WIND       PRES   REMARKS
SIOUX FALLS    CLOUDY    72  67  84 NE14      29.98F
BROOKINGS      CLOUDY    70  61  73 NE12      30.02F
WATERTOWN      CLOUDY    72  58  61 E12G22    30.02S
HURON          CLOUDY    71  60  68 E13       30.00F
SISSETON         N/A     79  51  37 NE13      30.01F
ABERDEEN       CLOUDY    76  53  44 NE16      30.03F
MITCHELL       CLOUDY    71  65  81 E13       29.99S
PIERRE         LGT RAIN  66  58  75 NE17G25   30.00F
MOBRIDGE       LGT RAIN  68  57  68 NE8       30.05F
RAPID CITY     LGT RAIN  56  54  93 NE13      30.11S
$$

  *****  SOME WEATHER IN NEARBY STATES *****

CITY           SKY/WX    TMP DP  RH WIND       PRES   REMARKS
GLASGOW MT     PTSUNNY   74  48  39 SE22G28   30.10F
GREAT FALLS MT LGT RAIN  58  54  86 NE23G32   30.04F
CHEYENNE WY    FAIR      71  56  58 S15G23    30.08F
SCOTTSBLUFF NE CLOUDY    67  58  72 SE5       30.04F
OMAHA NE       FAIR      93  72  50 S17       29.88F HX 101
DES MOINES IA  FAIR      92  74  55 SW14      29.91F HX 101
DAVENPORT IA   FAIR      91  73  55 SW10G24   29.96F HX  99
CHICAGO IL     PTSUNNY   94  70  45 W14G26    29.90F HX 100
EAU CLAIRE WI  CLOUDY    74  65  73 N7        29.99R
LA CROSSE WI   PTSUNNY   85  73  67 NW12      29.93S HX  91
$$

  *****  SOME NATIONAL WEATHER *****

CITY           SKY/WX    TMP DP  RH WIND       PRES   REMARKS
LA GUARDIA NY  PTSUNNY   91  67  44 S16G24    29.85F HX  94
RALEIGH NC     FAIR      93  72  50 VRB6      30.02F HX 101
ATLANTA GA     PTSUNNY   85  68  56 SE9       30.11F THUNDER
NEW ORLEANS LA LGT RAIN  77  75  93 W3        30.11F
OKLAHOMA CITY  PTSUNNY   89  70  53 S16G23    29.98F HX  94
ALBUQUERQUE NM FAIR      82  43  25 S9        30.12F
SALT LAKE CITY FAIR      75  41  29 N12G20    30.00F
LOS ANGELES CA FAIR      69  55  60 SW17      30.02F
BOISE ID       PTSUNNY   67  51  56 SW5       29.96F
SEATTLE WA     FAIR      83  52  34 W8        29.96F
$$

*** WEATHER ACROSS MANITOBA...SASKATCHEWAN AND ONTARIO ***
                ***ONTARIO***

CITY           SKY/WX    TMP DP  RH WIND       PRES   REMARKS
GERALDTON      PTSUNNY   72  50  46 N5G22     30.00S
THUNDER BAY    MOSUNNY   79  48  34 N14G21    30.01S
SIOUX LOOKOUT  MOSUNNY   77  45  31 N7G18     30.07S
TORONTO        PTSUNNY   77  70  78 W14G23    29.83S
BIG TROUT LK   SUNNY     70  43  37 NW10      30.04F
PICKLE LAKE    MOSUNNY   73  43  33 NW5       30.06S
DRYDEN         PTSUNNY   75  45  33 VRB12G17  30.07F
KENORA         MOSUNNY   77  46  33 N7G18     30.09F
$$
                *** MANITOBA***

CITY           SKY/WX    TMP DP  RH WIND       PRES   REMARKS
BRANDON        PTSUNNY   79  43  27 VRB7      30.13F
DAUPHIN        MOSUNNY   82  43  24 NW7       30.10F
ISLAND LAKE    MOSUNNY   77  45  31 W6        30.06F
PILOT MOUND      N/A     73  41  31 NE7         N/A
THE PAS        SUNNY     82  41  23 W13G22    30.06F
THOMPSON       LGT RAIN  81  46  30 W13G20    29.94S
WINNIPEG       MOSUNNY   79  46  31 NE7       30.10F
LYNN LAKE      PTSUNNY   82  45  26 W15G23    29.92F
CHURCHILL      PTSUNNY   79  50  36 W9        29.82F
GILLAM         PTSUNNY   75  50  41 NW7       29.95S
$$
                ***SASKATCHEWAN***

CITY           SKY/WX    TMP DP  RH WIND       PRES   REMARKS
ESTEVAN        PTSUNNY   79  45  29 VRB12G18  30.15F
KINDERSLEY     MOSUNNY   77  39  25 NE12      30.15F
LLOYDMINSTER   MOSUNNY   77  45  31 SW7       30.14F
PRINCE ALBERT  MOSUNNY   81  43  26 VRB3      30.12F
REGINA         PTSUNNY   75  41  29 E10       30.15F
YORKTON        PTSUNNY   77  39  25 VRB3      30.15F



USA.gov is the U.S. government's official web portal to all federal, state and local government web resources and services.